Amateur Radio Satellites - All Passes

Search period start: 18 May 2013 22:56
Search period end: 19 May 2013 22:56
Location: UBC Liquid-Mirror Observatory, 49.2876°N, 122.5728°W

Satellite Date Start Highest point End Downlink Frequencies (MHz)
Time Altitude Azimuth
HO-68 18 May 22:58:43 23:04:47 29° 267° (W) 23:10:53 435.675 MHz FM
Oscar 11 18 May 23:18:55 23:21:56 18° 269° (W) 23:24:58 145.825 FM, Beacon 2401.500 USB
RS-15 18 May 23:35:25 23:46:02 40° 17° (NNE) 23:56:14 29.354 - 29.394 USB, Beacon 29.352 USB
KITSAT 1 18 May 23:44:25 23:51:34 37° 110° (ESE) 23:58:47 435.175 FM
OPAL 18 May 23:58:01 00:01:19 17° 269° (W) 00:04:38 ?
JAS-2 19 May 00:00:37 00:05:56 20° 277° (W) 00:11:21 435.800 - 435.900 CW/SSB, 435.910 FM
KITSAT 1 19 May 01:38:31 01:46:33 67° 313° (NW) 01:54:40 435.175 FM
RS-15 19 May 01:49:02 02:00:23 78° 47° (NE) 02:11:18 29.354 - 29.394 USB, Beacon 29.352 USB
MaSat-1 19 May 01:49:10 01:53:11 16° 102° (ESE) 01:56:52 437.345 MHz
AO-27 19 May 02:06:48 02:10:26 19° 90° (E) 02:14:02 436.795 MHz FM
Oscar 16 19 May 02:07:08 02:11:22 25° 92° (E) 02:15:35 437.025 USB, Beacon 2401.1428
ITAMSAT 1 19 May 02:14:18 02:18:14 21° 91° (E) 02:22:09 435.822 SSB
Uribyol 2 19 May 02:55:40 03:00:45 48° 99° (E) 03:05:47 436.500 FM
Oscar 19 19 May 03:07:15 03:12:26 67° 102° (ESE) 03:17:34 437.125 CW, 437.150 USB
MaSat-1 19 May 03:27:49 03:34:52 74° 118° (ESE) 03:40:35 437.345 MHz
Uosat F 19 May 03:33:15 03:36:32 17° 89° (E) 03:39:49 435.120 FM
KITSAT 1 19 May 03:36:39 03:43:33 29° 339° (NNW) 03:50:29 435.175 FM
AO-Echo 19 May 03:43:09 03:47:39 43° 98° (E) 03:52:11 ?
AO-27 19 May 03:45:17 03:50:30 71° 288° (WNW) 03:55:42 436.795 MHz FM
Oscar 16 19 May 03:46:00 03:51:04 53° 291° (WNW) 03:56:04 437.025 USB, Beacon 2401.1428
Gurwin Techsat 1B 19 May 03:47:25 03:51:19 20° 90° (E) 03:55:12 435.225 FM
ITAMSAT 1 19 May 03:53:01 03:58:11 63° 290° (WNW) 04:03:20 435.822 SSB
RS-15 19 May 04:02:08 04:11:47 37° 253° (WSW) 04:21:15 29.354 - 29.394 USB, Beacon 29.352 USB
AO-7 19 May 04:19:17 04:22:46 13° 82° (E) 04:26:14 29.400 - 29.500 MHz
Uribyol 2 19 May 04:35:34 04:40:03 29° 298° (WNW) 04:44:31 436.500 FM
Oscar 19 19 May 04:47:28 04:51:20 22° 302° (WNW) 04:55:12 437.125 CW, 437.150 USB
ISS 19 May 05:04:56 05:07:54 30° 145° (SE) 05:10:53 145.800 FM
TMSAT-1 19 May 05:07:03 05:12:21 63° 102° (ESE) 05:17:36 436.925 FM
Uosat F 19 May 05:10:53 05:15:54 73° 288° (WNW) 05:20:55 435.120 FM
MaSat-1 19 May 05:11:46 05:17:28 29° 314° (NW) 05:22:12 437.345 MHz
AO-Echo 19 May 05:22:22 05:26:18 27° 297° (WNW) 05:30:16 ?
STRAND 1 19 May 05:24:11 05:28:19 26° 60° (ENE) 05:32:28 ?
Gurwin Techsat 1B 19 May 05:26:31 05:31:48 67° 289° (WNW) 05:37:04 435.225 FM
AO-27 19 May 05:26:38 05:29:09 14° 308° (NW) 05:31:40 436.795 MHz FM
Oscar 16 19 May 05:28:33 05:29:19 10° 311° (NW) 05:30:05 437.025 USB, Beacon 2401.1428
ITAMSAT 1 19 May 05:34:42 05:36:44 12° 309° (NW) 05:38:46 435.822 SSB
KITSAT 1 19 May 05:35:23 05:41:50 25° 9° (N) 05:48:17 435.175 FM
AO-7 19 May 06:09:08 06:17:24 60° 103° (ESE) 06:25:38 29.400 - 29.500 MHz
Saudisat 1A 19 May 06:33:57 06:37:17 20° 113° (ESE) 06:40:40 436.775 MHz
ISS 19 May 06:41:05 06:44:26 76° 344° (NNW) 06:47:49 145.800 FM
TMSAT-1 19 May 06:47:44 06:51:53 24° 301° (WNW) 06:56:02 436.925 FM
Uosat F 19 May 06:51:33 06:53:53 13° 308° (NW) 06:56:13 435.120 FM
STRAND 1 19 May 07:02:15 07:07:14 54° 259° (W) 07:12:15 ?
Gurwin Techsat 1B 19 May 07:08:28 07:10:51 13° 309° (NW) 07:13:14 435.225 FM
KITSAT 1 19 May 07:31:49 07:39:33 44° 37° (NE) 07:47:16 435.175 FM
Hamsat 19 May 07:37:08 07:40:52 27° 94° (E) 07:44:36 145.90 MHz
JAS-1B 19 May 07:38:38 07:42:14 16° 83° (E) 07:45:39 435.800 - 435.900 CW/SSB
AO-7 19 May 08:02:20 08:09:57 41° 305° (NW) 08:17:33 29.400 - 29.500 MHz
Saudisat 1A 19 May 08:11:59 08:16:34 68° 313° (NW) 08:21:11 436.775 MHz
PCSat 19 May 08:15:44 08:20:21 30° 111° (ESE) 08:25:00 145.825 MHz
ISS 19 May 08:18:04 08:21:23 56° 4° (N) 08:24:43 145.800 FM
Oscar 10/S400 19 May 08:28:53 11:19:57 35° 256° (WSW) 18:01:18 145.825 - 145.975 CW/USB, Beacon 145.810 USB
Sapphire 19 May 08:47:47 08:52:57 49° 117° (ESE) 08:58:10 437.095 MHz 1200 baud AX-25 AFSK
SO-50 19 May 08:57:40 08:58:37 11° 107° (ESE) 08:59:34 436.795 FM
SO-67 19 May 09:05:23 09:09:00 84° 103° (ESE) 09:12:35 435.3500 MHz FM
Hamsat 19 May 09:13:03 09:17:01 36° 292° (WNW) 09:20:59 145.90 MHz
JAS-2 19 May 09:20:17 09:23:58 15° 79° (E) 09:27:28 435.800 - 435.900 CW/SSB, 435.910 FM
KITSAT 1 19 May 09:27:24 09:35:26 66° 240° (WSW) 09:43:25 435.175 FM
JAS-1B 19 May 09:27:37 09:34:10 88° 287° (WNW) 09:39:56 435.800 - 435.900 CW/SSB
Saudisat 1A 19 May 09:53:43 09:57:06 20° 334° (NNW) 10:00:28 436.775 MHz
ISS 19 May 09:54:51 09:58:13 68° 204° (SSW) 10:01:34 145.800 FM
AO-7 19 May 09:56:44 10:00:34 14° 329° (NNW) 10:04:24 29.400 - 29.500 MHz
PCSat 19 May 09:58:12 10:03:31 55° 311° (NW) 10:08:53 145.825 MHz
HO-68 19 May 10:20:08 10:26:59 46° 99° (E) 10:33:48 435.675 MHz FM
OPAL 19 May 10:24:14 10:26:48 14° 89° (E) 10:29:20 ?
MaSat-1 19 May 10:28:42 10:30:35 13° 30° (NNE) 10:32:17 437.345 MHz
Sapphire 19 May 10:31:33 10:36:34 37° 318° (NW) 10:41:37 437.095 MHz 1200 baud AX-25 AFSK
SO-50 19 May 10:33:39 10:38:24 67° 126° (SE) 10:43:06 436.795 FM
SO-67 19 May 10:41:34 10:41:53 10° 301° (WNW) 10:42:12 435.3500 MHz FM
Oscar 11 19 May 11:00:59 11:05:19 61° 101° (ESE) 11:09:38 145.825 FM, Beacon 2401.500 USB
JAS-2 19 May 11:03:13 11:10:33 71° 102° (ESE) 11:16:59 435.800 - 435.900 CW/SSB, 435.910 FM
JAS-1B 19 May 11:19:27 11:23:48 19° 312° (NW) 11:27:49 435.800 - 435.900 CW/SSB
KITSAT 1 19 May 11:25:02 11:29:17 15° 261° (W) 11:33:32 435.175 FM
ISS 19 May 11:32:22 11:34:28 16° 222° (SW) 11:36:34 145.800 FM
Saudisat 1A 19 May 11:36:45 11:38:33 12° 359° (N) 11:40:21 436.775 MHz
PCSat 19 May 11:44:30 11:48:11 18° 335° (NNW) 11:51:52 145.825 MHz
Oscar 16 19 May 11:53:51 11:54:50 11° 49° (NE) 11:55:48 437.025 USB, Beacon 2401.1428
OPAL 19 May 12:01:21 12:06:26 89° 288° (WNW) 12:11:26 ?
HO-68 19 May 12:08:00 12:14:42 45° 299° (WNW) 12:21:23 435.675 MHz FM
MaSat-1 19 May 12:09:50 12:13:44 77° 58° (ENE) 12:16:47 437.345 MHz
SO-50 19 May 12:15:19 12:19:26 28° 326° (NW) 12:23:30 436.795 FM
Sapphire 19 May 12:18:39 12:21:37 15° 342° (NNW) 12:24:36 437.095 MHz 1200 baud AX-25 AFSK
UOSAT-12 19 May 12:18:39 12:21:58 20° 114° (ESE) 12:25:18 437.025 FM, 437.400 FM
Oscar 11 19 May 12:38:10 12:41:09 18° 300° (WNW) 12:44:07 145.825 FM, Beacon 2401.500 USB
Uribyol 2 19 May 12:40:37 12:44:12 19° 56° (ENE) 12:47:47 436.500 FM
JAS-2 19 May 12:48:50 12:54:56 30° 305° (NW) 13:00:31 435.800 - 435.900 CW/SSB, 435.910 FM
Oscar 19 19 May 12:50:33 12:54:42 25° 60° (ENE) 12:58:51 437.125 CW, 437.150 USB
Saudisat 1A 19 May 13:16:54 13:20:04 18° 23° (NNE) 13:23:13 436.775 MHz
AO-Echo 19 May 13:24:32 13:27:06 15° 56° (NE) 13:29:39 ?
Oscar 16 19 May 13:28:03 13:33:06 54° 69° (ENE) 13:38:11 437.025 USB, Beacon 2401.1428
AO-27 19 May 13:28:48 13:33:39 42° 66° (ENE) 13:38:32 436.795 MHz FM
PCSat 19 May 13:31:59 13:33:56 12° 1° (N) 13:35:53 145.825 MHz
AO-7 19 May 13:36:16 13:38:34 11° 25° (NNE) 13:40:51 29.400 - 29.500 MHz
ITAMSAT 1 19 May 13:36:16 13:41:12 47° 67° (ENE) 13:46:11 435.822 SSB
OPAL 19 May 13:41:31 13:44:39 17° 308° (NW) 13:47:45 ?
UOSAT-12 19 May 13:57:12 14:01:43 66° 313° (NW) 14:06:17 437.025 FM, 437.400 FM
HO-68 19 May 13:57:49 14:00:41 13° 322° (NW) 14:03:33 435.675 MHz FM
SO-50 19 May 13:59:19 14:01:34 13° 350° (N) 14:03:48 436.795 FM
Sapphire 19 May 14:05:15 14:07:30 12° 9° (N) 14:09:46 437.095 MHz 1200 baud AX-25 AFSK
Uribyol 2 19 May 14:17:56 14:23:07 79° 256° (WSW) 14:28:21 436.500 FM
Oscar 19 19 May 14:28:35 14:33:42 58° 259° (W) 14:38:52 437.125 CW, 437.150 USB
Uosat F 19 May 14:50:20 14:54:53 37° 65° (ENE) 14:59:29 435.120 FM
TMSAT-1 19 May 14:53:51 14:58:02 25° 60° (ENE) 15:02:15 436.925 FM
Saudisat 1A 19 May 14:56:10 15:00:43 58° 45° (NE) 15:05:10 436.775 MHz
AO-Echo 19 May 15:00:22 15:05:15 87° 75° (ENE) 15:10:03 ?
Oscar 16 19 May 15:08:34 15:12:47 25° 268° (W) 15:17:02 437.025 USB, Beacon 2401.1428
AO-27 19 May 15:08:45 15:13:19 31° 265° (W) 15:17:56 436.795 MHz FM
Gurwin Techsat 1B 19 May 15:12:25 15:17:27 46° 67° (ENE) 15:22:31 435.225 FM
PCSat 19 May 15:15:45 15:19:38 19° 27° (NNE) 15:23:30 145.825 MHz
ITAMSAT 1 19 May 15:16:33 15:20:56 28° 266° (W) 15:25:23 435.822 SSB
AO-7 19 May 15:21:46 15:28:47 32° 50° (NE) 15:35:51 29.400 - 29.500 MHz
UOSAT-12 19 May 15:39:28 15:42:44 19° 335° (NNW) 15:46:01 437.025 FM, 437.400 FM
SO-50 19 May 15:41:33 15:44:08 15° 15° (NNE) 15:46:41 436.795 FM
Sapphire 19 May 15:48:27 15:52:57 25° 34° (NE) 15:57:26 437.095 MHz 1200 baud AX-25 AFSK
Uribyol 2 19 May 16:01:33 16:03:30 12° 275° (W) 16:05:26 436.500 FM
RS-15 19 May 16:18:48 16:28:30 30° 104° (ESE) 16:37:52 29.354 - 29.394 USB, Beacon 29.352 USB
Uosat F 19 May 16:29:12 16:33:44 34° 264° (W) 16:38:18 435.120 FM
TMSAT-1 19 May 16:32:23 16:37:37 60° 259° (W) 16:42:53 436.925 FM
Saudisat 1A 19 May 16:36:29 16:40:06 24° 245° (WSW) 16:43:39 436.775 MHz
AO-Echo 19 May 16:42:27 16:44:43 13° 273° (W) 16:46:58 ?
Gurwin Techsat 1B 19 May 16:53:02 16:57:38 29° 266° (W) 17:02:16 435.225 FM
PCSat 19 May 16:58:45 17:04:11 62° 50° (NE) 17:09:33 145.825 MHz
AO-7 19 May 17:12:37 17:20:55 78° 252° (WSW) 17:29:18 29.400 - 29.500 MHz
SO-50 19 May 17:21:47 17:26:04 36° 39° (NE) 17:30:16 436.795 FM
UOSAT-12 19 May 17:22:56 17:24:41 12° 360° (N) 17:26:26 437.025 FM, 437.400 FM
Sapphire 19 May 17:31:35 17:37:04 85° 236° (WSW) 17:42:30 437.095 MHz 1200 baud AX-25 AFSK
JAS-1B 19 May 18:25:37 18:33:12 33° 58° (ENE) 18:39:50 435.800 - 435.900 CW/SSB
RS-15 19 May 18:27:34 18:39:36 90° 128° (SE) 18:51:07 29.354 - 29.394 USB, Beacon 29.352 USB
Hamsat 19 May 18:35:24 18:39:11 33° 67° (ENE) 18:43:00 145.90 MHz
PCSat 19 May 18:42:48 18:47:14 26° 250° (WSW) 18:51:38 145.825 MHz
SO-50 19 May 19:02:28 19:06:46 41° 239° (WSW) 19:10:59 436.795 FM
UOSAT-12 19 May 19:03:26 19:06:39 18° 24° (NNE) 19:09:53 437.025 FM, 437.400 FM
STRAND 1 19 May 19:08:40 19:13:27 37° 97° (E) 19:18:12 ?
AO-7 19 May 19:09:37 19:15:05 19° 274° (W) 19:20:37 29.400 - 29.500 MHz
HO-68 19 May 19:09:49 19:13:32 15° 41° (NE) 19:17:16 435.675 MHz FM
Sapphire 19 May 19:16:38 19:19:41 15° 256° (WSW) 19:22:44 437.095 MHz 1200 baud AX-25 AFSK
JAS-2 19 May 19:37:11 19:41:38 17° 45° (NE) 19:46:03 435.800 - 435.900 CW/SSB, 435.910 FM
SO-67 19 May 19:45:08 19:48:38 58° 74° (ENE) 19:52:11 435.3500 MHz FM
Hamsat 19 May 20:11:40 20:15:18 28° 266° (W) 20:18:59 145.90 MHz
JAS-1B 19 May 20:13:57 20:23:17 77° 256° (WSW) 20:31:13 435.800 - 435.900 CW/SSB
Oscar 11 19 May 20:27:25 20:29:04 12° 56° (NE) 20:30:43 145.825 FM, Beacon 2401.500 USB
RS-15 19 May 20:42:23 20:53:30 44° 336° (NNW) 21:04:10 29.354 - 29.394 USB, Beacon 29.352 USB
UOSAT-12 19 May 20:43:09 20:47:43 62° 46° (NE) 20:52:17 437.025 FM, 437.400 FM
STRAND 1 19 May 20:47:59 20:52:38 35° 296° (WNW) 20:57:16 ?
HO-68 19 May 20:52:53 20:59:45 54° 63° (ENE) 21:06:39 435.675 MHz FM
JAS-2 19 May 21:17:35 21:25:04 55° 66° (ENE) 21:32:38 435.800 - 435.900 CW/SSB, 435.910 FM
SO-67 19 May 21:21:02 21:22:29 12° 271° (W) 21:23:57 435.3500 MHz FM
OPAL 19 May 21:42:05 21:46:57 42° 64° (ENE) 21:51:48 ?
Oscar 11 19 May 22:00:16 22:04:36 82° 74° (ENE) 22:08:57 145.825 FM, Beacon 2401.500 USB
JAS-1B 19 May 22:08:41 22:14:48 20° 274° (W) 22:20:24 435.800 - 435.900 CW/SSB
KITSAT 1 19 May 22:13:00 22:13:57 10° 95° (E) 22:14:53 435.175 FM
UOSAT-12 19 May 22:23:59 22:27:33 23° 245° (WSW) 22:31:06 437.025 FM, 437.400 FM
HO-68 19 May 22:41:11 22:47:42 37° 264° (W) 22:54:16 435.675 MHz FM

Developed and maintained by Chris Peat, Heavens-Above GmbH. Please read the updated FAQ before sending e-mail. Imprint. DLR
